Change the Weather History Date:

Saturday, November 23, 2013

  Actual Average Record
Temperature  
Mean Temperature 26 °F -  
Max Temperature 33 °F 44 °F 69 °F (1999)
Min Temperature 18 °F 27 °F 10 °F (1970)
Degree Days  
Heating Degree Days 39    
Moisture  
Dew Point 18 °F    
Average Humidity 68    
Maximum Humidity 85    
Minimum Humidity 47    
Precipitation  
Precipitation 0.01 in - - ()
Sea Level Pressure  
Sea Level Pressure 30.41 in    
Wind  
Wind Speed 9 mph (NW)    
Max Wind Speed 24 mph    
Max Gust Speed 31 mph    
Visibility 8 miles    
Events Snow    
Averages and records for this station are not official NWS values.
T = Trace of Precipitation, MM = Missing Value Source: NWS Daily Summary

Daily Weather History Graph

Daily Weather History Graph

Search for Another Location

Airport or City:

Trip Planner

Search our weather history database for the weather conditions in past years. The results will help you decide how hot, cold, wet, or windy it might be!

Date:

Astronomy

Nov. 23, 2013 Rise Set
Actual Time 7:35 AM EST 5:12 PM EST
Civil Twilight 7:05 AM EST 5:42 PM EST
Nautical Twilight 6:31 AM EST 6:16 PM EST
Astronomical Twilight 5:58 AM EST 6:49 PM EST
Moon 10:41 PM EST (11/23) 11:50 AM EST (11/23)
Length of Visible Light 10h 37m
Length of Day
9h 36m
Waning Gibbous, 70% of the Moon is Illuminated
Nov 23
Waning Gibbous
Nov 25
Last Quarter
Dec 2
New
Dec 9
First Quarter
Dec 17
Full

Hourly Weather History & Observations

Time (EST) Temp. Windchill Dew Point Humidity Pressure Visibility Wind Dir Wind Speed Gust Speed Precip Events Conditions
12:53 AM 28.9 °F 25.2 °F 23.0 °F 78% 30.41 in 10.0 mi WNW 3.5 mph - N/A   Clear
1:53 AM 28.9 °F - 23.0 °F 78% 30.41 in 10.0 mi Calm Calm - N/A   Clear
2:53 AM 26.1 °F 21.9 °F 21.9 °F 84% 30.39 in 10.0 mi WSW 3.5 mph - N/A   Clear
3:53 AM 26.1 °F 20.5 °F 21.9 °F 84% 30.37 in 10.0 mi WSW 4.6 mph - N/A   Clear
4:53 AM 28.0 °F 21.7 °F 24.1 °F 85% 30.36 in 10.0 mi WSW 5.8 mph - N/A   Clear
5:53 AM 27.0 °F 23.0 °F 23.0 °F 85% 30.35 in 9.0 mi Variable 3.5 mph - N/A   Clear
6:53 AM 27.0 °F 23.0 °F 21.9 °F 81% 30.35 in 8.0 mi WSW 3.5 mph - N/A   Clear
7:53 AM 26.1 °F 21.9 °F 21.0 °F 81% 30.35 in 8.0 mi WSW 3.5 mph - N/A   Clear
8:53 AM 28.9 °F 22.8 °F 21.9 °F 75% 30.36 in 10.0 mi Variable 5.8 mph - N/A   Clear
9:53 AM 32.0 °F 24.8 °F 23.0 °F 69% 30.36 in 10.0 mi West 8.1 mph - N/A   Clear
10:43 AM 32.0 °F 23.0 °F 23.0 °F 69% 30.34 in 10.0 mi NW 11.5 mph 21.9 mph N/A   Mostly Cloudy
10:53 AM 33.1 °F 23.0 °F 23.0 °F 66% 30.37 in 10.0 mi NW 15.0 mph 20.7 mph N/A   Mostly Cloudy
11:10 AM 30.2 °F 18.9 °F 21.2 °F 69% 30.35 in 9.0 mi NW 16.1 mph 26.5 mph 0.00 in   Overcast
11:31 AM 30.2 °F 17.8 °F 23.0 °F 75% 30.35 in 1.5 mi NW 19.6 mph 31.1 mph 0.00 in Snow Light Snow
11:35 AM 28.4 °F 14.1 °F 23.0 °F 80% 30.35 in 0.2 mi NW 24.2 mph 31.1 mph 0.00 in Snow Heavy Snow
11:47 AM 30.2 °F 21.9 °F 24.8 °F 80% 30.35 in 1.0 mi WNW 9.2 mph - 0.01 in Snow Light Snow
11:53 AM 30.0 °F 24.1 °F 23.0 °F 75% 30.38 in 9.0 mi WNW 5.8 mph - 0.01 in Snow Light Snow
12:04 PM 30.2 °F 19.3 °F 23.0 °F 75% 30.35 in 10.0 mi NW 15.0 mph - 0.00 in   Overcast
12:11 PM 30.2 °F 20.2 °F 21.2 °F 69% 30.35 in 9.0 mi NW 12.7 mph 21.9 mph 0.00 in Snow Light Snow
12:19 PM 28.4 °F 14.4 °F 21.2 °F 74% 30.35 in 3.0 mi NNW 23.0 mph 28.8 mph 0.00 in Snow Light Snow
12:21 PM 28.4 °F 15.8 °F 21.2 °F 74% 30.35 in 1.8 mi NNW 18.4 mph 28.8 mph 0.00 in Snow Light Snow
12:30 PM 28.4 °F 17.5 °F 21.2 °F 74% 30.35 in 2.5 mi NNW 13.8 mph - 0.00 in Snow Light Snow
12:37 PM 30.2 °F 18.1 °F 19.4 °F 64% 30.35 in 9.0 mi NNW 18.4 mph 27.6 mph 0.00 in   Overcast
12:53 PM 30.9 °F 17.8 °F 18.0 °F 59% 30.38 in 10.0 mi NW 23.0 mph 28.8 mph 0.00 in   Mostly Cloudy
1:53 PM 30.0 °F 16.9 °F 15.1 °F 54% 30.39 in 10.0 mi NW 21.9 mph 29.9 mph N/A   Mostly Cloudy
2:53 PM 28.9 °F 16.9 °F 10.9 °F 47% 30.40 in 10.0 mi NW 17.3 mph 28.8 mph N/A   Scattered Clouds
3:53 PM 28.9 °F 16.1 °F 14.0 °F 54% 30.43 in 10.0 mi NW 19.6 mph 27.6 mph N/A   Mostly Cloudy
4:53 PM 26.1 °F 14.0 °F 9.0 °F 49% 30.46 in 10.0 mi NW 15.0 mph - 0.00 in   Mostly Cloudy
5:53 PM 25.0 °F 12.2 °F 8.1 °F 49% 30.49 in 10.0 mi NNW 16.1 mph - N/A   Mostly Cloudy
6:53 PM 24.1 °F 11.0 °F 8.1 °F 51% 30.52 in 10.0 mi NNW 16.1 mph - N/A   Overcast
7:53 PM 21.0 °F 7.6 °F 7.0 °F 55% 30.55 in 10.0 mi NNW 15.0 mph - N/A   Clear
8:53 PM 19.9 °F 7.9 °F 7.0 °F 57% 30.57 in 10.0 mi NNW 11.5 mph - N/A   Clear
9:53 PM 19.9 °F 6.7 °F 6.1 °F 55% 30.58 in 10.0 mi NNW 13.8 mph 21.9 mph N/A   Clear
10:53 PM 19.0 °F 6.8 °F 7.0 °F 59% 30.58 in 10.0 mi NNW 11.5 mph - N/A   Clear
11:53 PM 18.0 °F 6.9 °F 7.0 °F 62% 30.60 in 10.0 mi NNW 9.2 mph - N/A   Clear